Lid_Strength_Index
1 2 2 3 9 10 14 11 8 10 10 7 5 7 8 7 9 12 1 3 0 0 -0 -1 -1 -1 -1 -1 -1 -1 -1 -1 -1 -1 -1 -1 -1 -1 -1 -1 -1 -1 -1 -1 -1 -1 -1 -1 -1
4 4 5 6 11 14 14 9 9 9 7 6 5 6 7 9 5 4 3 2 -0 -0 -0 -0 -1 -1 -1 -1 -1 -1 -1 -1 -1 -2 -2 -1 -1 -1 -1 -1 -1 -1 -1 -1 -1 -1 -1 -1 -1
2 4 8 9 12 13 13 9 8 6 5 6 6 5 6 7 4 3 1 1 0 0 -0 -0 -1 -1 -1 -1 -1 -1 -1 -1 -1 -2 -2 -2 -2 -2 -1 -1 -1 -1 -1 -1 -1 -1 -1 -1 -1
7 6 7 11 12 9 9 8 7 7 6 5 5 8 4 2 3 2 0 0 0 0 -0 -1 -1 -1 -1 -1 -1 -1 -1 -1 -1 -1 -1 -1 -1 -1 -2 -2 -2 -1 -1 -1 -1 -1 -1 -1 -1
8 8 12 12 10 9 8 6 6 7 7 6 6 8 7 3 1 1 1 0 1 0 -0 -0 -1 -1 -1 -1 -1 -1 -1 -1 -1 -1 -1 -1 -1 -1 -1 -1 -1 -1 -1 -1 -1 -2 -2 -1 -1
10 9 13 13 11 8 8 6 6 6 6 6 7 7 6 2 2 1 0 1 -0 0 -0 -0 -1 -1 -1 -1 -1 -2 -2 -3 -3 -3 -4 -3 -2 -2 -1 -1 -1 -2 -2 -1 -1 -1 -1 -1 -1
11 11 13 11 10 9 8 6 7 7 6 7 5 8 6 4 2 1 2 0 -0 -0 -0 -0 -0 -1 -2 -3 -3 -3 -3 -3 -3 -3 -3 -3 -3 -2 -3 -2 -2 -2 -2 -2 -2 -2 -1 -1 -1
9 10 11 10 9 9 7 6 5 6 7 4 4 8 8 4 1 1 1 2 0 0 0 0 0 0 -0 -1 -3 -4 -3 -3 -3 -4 -4 -4 -3 -4 -3 -3 -2 -3 -2 -2 -2 -2 -1 -1 -1
8 11 12 10 9 8 6 7 5 4 6 5 4 4 3 2 2 2 2 2 1 1 1 0 1 1 1 -0 -1 -2 -4 -3 -3 -3 -4 -1 0 1 -1 -3 -3 -3 -3 -4 -3 -3 -2 -2 -1
9 12 11 8 7 9 6 6 6 6 6 6 5 3 2 3 3 3 4 4 4 3 1 1 1 0 2 -0 0 0 -0 0 -0 -0 -0 -0 0 -0 -1 -2 -3 -3 -4 -4 -3 -3 -3 -2 -1
9 11 8 7 7 7 6 7 5 6 8 6 6 4 3 3 3 4 4 4 4 3 2 1 0 0 1 1 1 1 0 0 1 -0 0 0 0 0 0 0 0 0 -2 0 -0 -0 -0 -0 -0
10 8 7 8 8 8 8 5 7 8 7 4 4 4 4 4 4 4 4 3 2 2 2 1 0 0 0 0 0 1 1 1 1 0 0 1 1 0 1 0 0 0 1 1 1 1 0 -0 -0
9 8 7 7 7 8 7 7 8 8 6 4 3 3 4 5 4 3 2 2 2 2 1 1 0 0 1 1 1 1 1 1 1 1 1 0 1 1 1 1 0 1 0 1 1 2 1 1 0
7 8 8 8 9 8 8 8 7 7 6 4 4 4 4 3 3 3 3 3 2 2 1 1 1 0 1 0 1 1 1 1 1 1 1 0 1 1 1 2 1 1 1 1 2 2 1 2 1
7 9 8 8 8 8 7 9 8 6 5 5 5 5 4 3 3 3 3 2 2 2 1 1 1 1 1 1 1 1 1 1 1 1 0 0 1 1 1 1 2 1 1 1 2 1 1 2 2
9 9 12 9 7 7 8 12 7 6 6 6 5 5 4 4 3 3 2 2 2 2 2 1 1 1 1 1 1 0 1 0 1 1 0 0 0 0 1 1 1 1 1 2 2 3 2 2 2
10 13 13 11 8 8 9 11 7 6 7 7 7 6 5 4 3 3 2 2 2 2 2 2 1 1 0 1 0 1 1 0 1 1 1 0 -0 1 0 0 1 1 2 2 2 2 3 3 2
12 13 11 10 9 9 11 10 7 6 6 6 7 6 5 4 4 3 2 2 2 2 2 2 1 1 1 1 1 1 1 1 1 2 1 1 1 0 1 2 2 2 2 3 3 3 2 2 2
9 10 11 9 7 9 10 10 8 7 7 7 7 7 6 5 3 3 2 2 2 3 3 2 2 1 1 1 2 2 2 2 2 1 2 1 1 1 1 2 2 2 3 3 2 2 3 3 3
9 11 11 9 7 9 9 10 8 7 7 7 7 7 5 5 4 3 3 2 3 3 3 2 1 1 1 1 1 1 3 3 2 2 2 1 1 0 1 1 2 2 2 3 3 3 3 2 3
10 11 10 10 8 8 10 11 9 7 7 6 6 6 5 5 5 4 4 3 3 4 3 2 2 1 1 1 2 3 3 3 3 3 3 2 0 0 1 1 1 1 1 2 2 2 3 3 2
11 8 8 9 10 14 10 15 11 9 8 7 7 7 5 5 4 4 4 4 4 3 3 2 2 1 1 2 3 3 4 4 3 3 3 2 1 1 0 1 1 2 2 3 2 1 2 2 3
9 7 9 9 11 12 11 14 12 9 11 9 7 5 5 5 4 4 4 4 4 4 3 2 2 2 2 2 2 3 4 3 3 3 3 3 2 1 1 1 1 1 1 2 2 1 1 1 2
7 8 9 11 13 15 14 14 14 12 11 10 7 6 5 5 4 4 3 4 4 4 3 2 2 1 2 2 2 3 3 3 3 3 4 3 3 2 2 1 1 2 2 2 2 1 2 3 2
8 12 16 17 16 16 11 14 13 9 7 7 7 6 5 5 5 5 6 5 5 4 4 3 3 3 3 3 2 3 4 3 4 4 3 4 4 4 3 2 3 3 2 2 3 3 3 3 3
10 12 15 20 19 17 11 16 13 8 7 7 7 6 5 5 5 5 6 6 4 4 4 3 3 3 2 3 2 2 3 3 3 3 3 4 4 3 2 4 4 3 2 4 3 4 4 3 2
10 12 10 14 13 15 14 12 9 7 7 7 7 6 7 7 6 5 5 4 4 4 4 3 3 3 2 2 3 3 3 3 3 3 3 4 3 2 4 4 4 4 3 4 4 4 4 3 2
9 9 13 14 20 21 16 15 14 10 9 8 8 8 8 7 7 6 5 5 5 5 3 3 2 3 3 3 3 3 3 2 2 3 4 4 3 4 5 3 3 4 3 4 4 4 4 3 3
10 11 11 12 14 18 19 16 9 10 9 8 8 8 8 7 7 6 5 5 4 4 4 4 4 4 4 4 4 3 3 3 3 4 4 4 5 5 5 4 5 4 5 4 5 5 4 4 4
9 11 11 16 16 15 16 16 8 8 8 7 7 6 7 7 7 6 5 5 5 5 5 5 4 4 4 4 4 4 4 4 4 5 4 5 5 5 5 5 4 4 3 3 4 4 4 4 5